Time,TemperatureF,DewpointF,PressureIn,WindDirection,WindDirectionDegrees,WindSpeedMPH,WindSpeedGustMPH,Humidity,HourlyPrecipIn,Conditions,Clouds,dailyrainin,SolarRadiationWatts/m^2,SoftwareType,DateUTC
2013-05-09 00:07:00,52.5,48.4,30.27,WSW,238,1.0,8.0,86,0.00,,,0.00,0.0,meteohub,2013-05-09 07:07:00,
2013-05-09 00:12:00,52.3,48.2,30.27,WNW,297,4.0,8.0,86,0.00,,,0.00,0.0,meteohub,2013-05-09 07:12:00,
2013-05-09 00:17:00,52.3,48.2,30.27,WSW,248,3.0,7.0,86,0.00,,,0.00,0.0,meteohub,2013-05-09 07:17:00,
2013-05-09 00:22:00,52.2,47.8,30.27,West,261,1.0,8.0,85,0.00,,,0.00,0.0,meteohub,2013-05-09 07:22:00,
2013-05-09 00:27:00,52.2,47.8,30.27,WNW,288,6.0,9.0,85,0.00,,,0.00,0.0,meteohub,2013-05-09 07:27:00,
2013-05-09 00:32:00,52.0,47.8,30.27,WNW,294,7.0,9.0,86,0.00,,,0.00,0.0,meteohub,2013-05-09 07:32:00,
2013-05-09 00:37:00,52.0,47.8,30.27,SW,231,2.0,10.0,86,0.00,,,0.00,0.0,meteohub,2013-05-09 07:37:00,
2013-05-09 00:42:00,51.8,47.7,30.27,NW,313,2.0,10.0,86,0.00,,,0.00,0.0,meteohub,2013-05-09 07:42:00,
2013-05-09 00:47:00,51.8,47.7,30.27,WSW,244,3.0,10.0,86,0.00,,,0.00,0.0,meteohub,2013-05-09 07:47:00,
2013-05-09 00:52:00,51.6,47.5,30.27,WSW,253,3.0,10.0,86,0.00,,,0.00,0.0,meteohub,2013-05-09 07:52:00,
2013-05-09 00:57:00,51.6,47.5,30.27,WSW,237,3.0,10.0,86,0.00,,,0.00,0.0,meteohub,2013-05-09 07:57:00,
2013-05-09 01:02:00,51.6,47.5,30.27,WSW,254,4.0,9.0,86,0.00,,,0.00,0.0,meteohub,2013-05-09 08:02:00,
2013-05-09 01:07:00,51.6,47.5,30.27,WSW,240,2.0,11.0,86,0.00,,,0.00,0.0,meteohub,2013-05-09 08:07:00,
2013-05-09 01:12:00,51.6,47.5,30.27,WSW,250,3.0,11.0,86,0.00,,,0.00,0.0,meteohub,2013-05-09 08:12:00,
2013-05-09 01:17:00,51.6,47.5,30.27,WNW,294,2.0,11.0,86,0.00,,,0.00,0.0,meteohub,2013-05-09 08:17:00,
2013-05-09 01:22:00,51.4,47.5,30.27,West,278,4.0,8.0,86,0.00,,,0.00,0.0,meteohub,2013-05-09 08:22:00,
2013-05-09 01:27:00,51.4,47.5,30.27,SW,218,5.0,8.0,86,0.00,,,0.00,0.0,meteohub,2013-05-09 08:27:00,
2013-05-09 01:32:00,51.4,47.7,30.27,WNW,286,7.0,8.0,87,0.00,,,0.00,0.0,meteohub,2013-05-09 08:32:00,
2013-05-09 01:37:00,51.4,47.7,30.27,WSW,250,6.0,8.0,87,0.00,,,0.00,0.0,meteohub,2013-05-09 08:37:00,
2013-05-09 01:42:00,51.4,47.7,30.27,WNW,294,2.0,9.0,87,0.00,,,0.00,0.0,meteohub,2013-05-09 08:42:00,
2013-05-09 01:47:00,51.4,47.7,30.27,West,261,6.0,9.0,87,0.00,,,0.00,0.0,meteohub,2013-05-09 08:47:00,
2013-05-09 01:52:00,51.4,47.7,30.27,West,267,3.0,9.0,87,0.00,,,0.00,0.0,meteohub,2013-05-09 08:52:00,
2013-05-09 01:57:00,51.4,47.7,30.26,WSW,249,3.0,10.0,87,0.00,,,0.00,0.0,meteohub,2013-05-09 08:57:00,
2013-05-09 02:02:00,51.4,47.7,30.26,West,278,3.0,10.0,87,0.00,,,0.00,0.0,meteohub,2013-05-09 09:02:00,
2013-05-09 02:07:00,51.4,47.7,30.26,SW,234,5.0,10.0,87,0.00,,,0.00,0.0,meteohub,2013-05-09 09:07:00,
2013-05-09 02:12:00,51.4,47.7,30.27,SSW,207,2.0,10.0,87,0.00,,,0.00,0.0,meteohub,2013-05-09 09:12:00,
2013-05-09 02:17:00,51.4,47.7,30.26,South,185,1.0,11.0,87,0.00,,,0.00,0.0,meteohub,2013-05-09 09:17:00,
2013-05-09 02:22:00,51.3,47.5,30.26,WSW,244,4.0,11.0,87,0.00,,,0.00,0.0,meteohub,2013-05-09 09:22:00,
2013-05-09 02:27:00,51.3,47.5,30.26,WSW,249,4.0,11.0,87,0.00,,,0.00,0.0,meteohub,2013-05-09 09:27:00,
2013-05-09 02:32:00,51.3,47.5,30.26,SW,227,5.0,9.0,87,0.00,,,0.00,0.0,meteohub,2013-05-09 09:32:00,
2013-05-09 02:37:00,51.3,47.5,30.26,West,269,4.0,15.0,87,0.00,,,0.00,0.0,meteohub,2013-05-09 09:37:00,
2013-05-09 02:42:00,51.1,47.3,30.26,West,259,2.0,15.0,87,0.00,,,0.00,0.0,meteohub,2013-05-09 09:42:00,
2013-05-09 02:47:00,51.3,47.5,30.26,WSW,250,6.0,15.0,87,0.00,,,0.00,0.0,meteohub,2013-05-09 09:47:00,
2013-05-09 02:52:00,51.1,47.3,30.26,WSW,248,2.0,9.0,87,0.00,,,0.00,0.0,meteohub,2013-05-09 09:52:00,
2013-05-09 02:57:00,51.1,47.3,30.25,WSW,254,6.0,8.0,87,0.00,,,0.00,0.0,meteohub,2013-05-09 09:57:00,
2013-05-09 03:02:00,51.1,47.3,30.26,SW,221,2.0,9.0,87,0.00,,,0.00,0.0,meteohub,2013-05-09 10:02:00,
2013-05-09 03:07:00,51.1,47.7,30.26,WSW,243,6.0,9.0,88,0.00,,,0.00,0.0,meteohub,2013-05-09 10:07:00,
2013-05-09 03:12:00,51.1,47.7,30.25,WSW,252,2.0,9.0,88,0.00,,,0.00,0.0,meteohub,2013-05-09 10:12:00,
2013-05-09 03:17:00,51.1,47.7,30.25,SW,225,6.0,10.0,88,0.00,,,0.00,0.0,meteohub,2013-05-09 10:17:00,
2013-05-09 03:22:00,51.1,47.7,30.25,SW,224,6.0,10.0,88,0.00,,,0.00,0.0,meteohub,2013-05-09 10:22:00,
2013-05-09 03:27:00,51.1,47.7,30.25,SW,229,3.0,8.0,88,0.00,,,0.00,0.0,meteohub,2013-05-09 10:27:00,
2013-05-09 03:32:00,51.1,47.7,30.25,WSW,251,5.0,8.0,88,0.00,,,0.00,0.0,meteohub,2013-05-09 10:32:00,
2013-05-09 03:37:00,51.1,47.7,30.25,WSW,238,4.0,9.0,88,0.00,,,0.00,0.0,meteohub,2013-05-09 10:37:00,
2013-05-09 03:42:00,51.1,47.7,30.25,WSW,254,2.0,9.0,88,0.00,,,0.00,0.0,meteohub,2013-05-09 10:42:00,
2013-05-09 03:47:00,51.1,47.7,30.25,West,261,6.0,9.0,88,0.00,,,0.00,0.0,meteohub,2013-05-09 10:47:00,
2013-05-09 03:52:00,51.1,47.7,30.25,SW,231,2.0,8.0,88,0.00,,,0.00,0.0,meteohub,2013-05-09 10:52:00,
2013-05-09 03:57:00,51.1,47.7,30.25,WSW,255,3.0,13.0,88,0.00,,,0.00,0.0,meteohub,2013-05-09 10:57:00,
2013-05-09 04:02:00,51.1,47.7,30.25,SW,232,3.0,13.0,88,0.00,,,0.00,0.0,meteohub,2013-05-09 11:02:00,
2013-05-09 04:07:00,51.1,47.7,30.25,WSW,246,1.0,9.0,88,0.00,,,0.00,0.0,meteohub,2013-05-09 11:07:00,
2013-05-09 04:12:00,51.1,47.7,30.25,SSW,197,1.0,9.0,88,0.00,,,0.00,0.0,meteohub,2013-05-09 11:12:00,
2013-05-09 04:17:00,51.1,47.7,30.25,WSW,240,2.0,7.0,88,0.00,,,0.00,0.0,meteohub,2013-05-09 11:17:00,
2013-05-09 04:22:00,51.1,47.7,30.25,West,259,0.0,8.0,88,0.00,,,0.00,0.0,meteohub,2013-05-09 11:22:00,
2013-05-09 04:27:00,51.3,47.8,30.25,West,265,1.0,8.0,88,0.00,,,0.00,0.0,meteohub,2013-05-09 11:27:00,
2013-05-09 04:32:00,51.3,47.8,30.25,SW,232,3.0,8.0,88,0.00,,,0.00,0.0,meteohub,2013-05-09 11:32:00,
2013-05-09 04:37:00,51.1,47.7,30.25,SW,228,2.0,7.0,88,0.00,,,0.00,0.0,meteohub,2013-05-09 11:37:00,
2013-05-09 04:42:00,51.1,47.7,30.25,West,262,5.0,7.0,88,0.00,,,0.00,0.0,meteohub,2013-05-09 11:42:00,
2013-05-09 04:47:00,51.1,47.7,30.25,SSW,209,3.0,7.0,88,0.00,,,0.00,0.0,meteohub,2013-05-09 11:47:00,
2013-05-09 04:52:00,51.1,47.7,30.25,SSW,211,2.0,8.0,88,0.00,,,0.00,0.0,meteohub,2013-05-09 11:52:00,
2013-05-09 04:57:00,50.9,47.5,30.25,WSW,246,5.0,8.0,88,0.00,,,0.00,0.0,meteohub,2013-05-09 11:57:00,
2013-05-09 05:02:00,50.9,47.5,30.25,WSW,242,2.0,8.0,88,0.00,,,0.00,0.0,meteohub,2013-05-09 12:02:00,
2013-05-09 05:07:00,50.9,47.5,30.25,WSW,240,8.0,8.0,88,0.00,,,0.00,0.0,meteohub,2013-05-09 12:07:00,
2013-05-09 05:12:00,50.7,47.3,30.25,WSW,246,3.0,9.0,88,0.00,,,0.00,0.0,meteohub,2013-05-09 12:12:00,
2013-05-09 05:17:00,50.7,47.3,30.25,WSW,252,6.0,9.0,88,0.00,,,0.00,0.0,meteohub,2013-05-09 12:17:00,
2013-05-09 05:22:00,50.7,47.3,30.25,WSW,240,2.0,9.0,88,0.00,,,0.00,0.0,meteohub,2013-05-09 12:22:00,
2013-05-09 05:32:00,50.7,47.3,30.25,WSW,249,1.0,7.0,88,0.00,,,0.00,0.0,meteohub,2013-05-09 12:32:00,
2013-05-09 05:37:00,50.7,47.3,30.25,WSW,248,2.0,7.0,88,0.00,,,0.00,0.0,meteohub,2013-05-09 12:37:00,
2013-05-09 05:42:00,50.7,47.3,30.25,WSW,254,3.0,7.0,88,0.00,,,0.00,0.0,meteohub,2013-05-09 12:42:00,
2013-05-09 05:47:00,50.7,47.3,30.25,WSW,240,4.0,5.0,88,0.00,,,0.00,0.0,meteohub,2013-05-09 12:47:00,
2013-05-09 05:52:00,50.5,47.1,30.25,SW,232,4.0,8.0,88,0.00,,,0.00,0.0,meteohub,2013-05-09 12:52:00,
2013-05-09 05:57:00,50.5,47.5,30.25,WNW,290,3.0,9.0,89,0.00,,,0.00,0.0,meteohub,2013-05-09 12:57:00,
2013-05-09 06:02:00,50.5,47.5,30.25,SW,220,3.0,9.0,89,0.00,,,0.00,0.0,meteohub,2013-05-09 13:02:00,
2013-05-09 06:07:00,50.5,47.5,30.25,SW,225,2.0,9.0,89,0.00,,,0.00,0.0,meteohub,2013-05-09 13:07:00,
2013-05-09 06:12:00,50.5,47.5,30.25,WSW,242,2.0,9.0,89,0.00,,,0.00,0.0,meteohub,2013-05-09 13:12:00,
2013-05-09 06:17:00,50.4,47.3,30.25,WNW,286,4.0,11.0,89,0.00,,,0.00,5.0,meteohub,2013-05-09 13:17:00,
2013-05-09 06:22:00,50.4,47.3,30.25,SW,236,0.0,11.0,89,0.00,,,0.00,9.0,meteohub,2013-05-09 13:22:00,
2013-05-09 06:27:00,50.4,47.3,30.26,West,279,0.0,7.0,89,0.00,,,0.00,9.0,meteohub,2013-05-09 13:27:00,
2013-05-09 06:32:00,50.4,47.3,30.26,South,173,1.0,7.0,89,0.00,,,0.00,18.0,meteohub,2013-05-09 13:32:00,
2013-05-09 06:37:00,50.5,47.5,30.25,West,262,2.0,7.0,89,0.00,,,0.00,14.0,meteohub,2013-05-09 13:37:00,
2013-05-09 06:42:00,50.5,47.5,30.26,WSW,258,8.0,8.0,89,0.00,,,0.00,23.0,meteohub,2013-05-09 13:42:00,
2013-05-09 06:47:00,50.5,47.5,30.26,NW,324,1.0,8.0,89,0.00,,,0.00,25.0,meteohub,2013-05-09 13:47:00,
2013-05-09 06:52:00,50.5,47.5,30.26,WSW,257,1.0,8.0,89,0.00,,,0.00,39.0,meteohub,2013-05-09 13:52:00,
2013-05-09 06:57:00,50.5,47.5,30.26,WSW,245,1.0,8.0,89,0.00,,,0.00,39.0,meteohub,2013-05-09 13:57:00,
2013-05-09 07:02:00,50.5,47.5,30.26,SW,233,4.0,9.0,89,0.00,,,0.00,54.0,meteohub,2013-05-09 14:02:00,
2013-05-09 07:07:00,50.5,47.5,30.27,WNW,302,3.0,9.0,89,0.00,,,0.00,42.0,meteohub,2013-05-09 14:07:00,
2013-05-09 07:12:00,50.7,47.7,30.26,WSW,246,2.0,9.0,89,0.00,,,0.00,40.0,meteohub,2013-05-09 14:12:00,
2013-05-09 07:17:00,50.7,47.3,30.27,West,267,4.0,8.0,88,0.00,,,0.00,47.0,meteohub,2013-05-09 14:17:00,
2013-05-09 07:22:00,50.9,47.5,30.27,West,259,4.0,8.0,88,0.00,,,0.00,40.0,meteohub,2013-05-09 14:22:00,
2013-05-09 07:27:00,51.1,47.7,30.27,SSW,211,0.0,9.0,88,0.00,,,0.00,42.0,meteohub,2013-05-09 14:27:00,
2013-05-09 07:32:00,51.3,47.8,30.27,West,261,2.0,9.0,88,0.00,,,0.00,33.0,meteohub,2013-05-09 14:32:00,
2013-05-09 07:37:00,51.3,47.8,30.27,WNW,290,5.0,9.0,88,0.00,,,0.00,42.0,meteohub,2013-05-09 14:37:00,
2013-05-09 07:42:00,51.3,47.5,30.27,SW,223,2.0,6.0,87,0.00,,,0.00,35.0,meteohub,2013-05-09 14:42:00,
2013-05-09 07:47:00,51.3,47.5,30.27,WSW,252,2.0,9.0,87,0.00,,,0.00,46.0,meteohub,2013-05-09 14:47:00,
2013-05-09 07:52:00,51.4,47.7,30.27,SW,229,4.0,9.0,87,0.00,,,0.00,47.0,meteohub,2013-05-09 14:52:00,
2013-05-09 07:57:00,51.4,47.7,30.27,SW,231,1.0,9.0,87,0.00,,,0.00,93.0,meteohub,2013-05-09 14:57:00,
2013-05-09 08:02:00,51.8,48.0,30.28,SW,218,2.0,8.0,87,0.00,,,0.00,90.0,meteohub,2013-05-09 15:02:00,
2013-05-09 08:07:00,52.2,48.4,30.28,WNW,282,3.0,8.0,87,0.00,,,0.00,100.0,meteohub,2013-05-09 15:07:00,
2013-05-09 08:12:00,52.3,48.2,30.28,West,278,4.0,8.0,86,0.00,,,0.00,116.0,meteohub,2013-05-09 15:12:00,
2013-05-09 08:17:00,52.7,48.6,30.28,WSW,256,3.0,7.0,86,0.00,,,0.00,146.0,meteohub,2013-05-09 15:17:00,
2013-05-09 08:22:00,53.1,48.7,30.28,WSW,248,4.0,8.0,85,0.00,,,0.00,135.0,meteohub,2013-05-09 15:22:00,
2013-05-09 08:27:00,53.2,48.9,30.28,SSW,208,5.0,9.0,85,0.00,,,0.00,144.0,meteohub,2013-05-09 15:27:00,
2013-05-09 08:32:00,53.2,48.6,30.28,SW,227,2.0,9.0,84,0.00,,,0.00,114.0,meteohub,2013-05-09 15:32:00,
2013-05-09 08:42:00,53.4,48.4,30.28,West,269,8.0,12.0,83,0.00,,,0.00,90.0,meteohub,2013-05-09 15:42:00,
2013-05-09 08:47:00,53.4,48.4,30.29,WSW,240,6.0,10.0,83,0.00,,,0.00,100.0,meteohub,2013-05-09 15:47:00,
2013-05-09 08:57:00,53.6,48.6,30.29,WSW,249,7.0,11.0,83,0.00,,,0.00,97.0,meteohub,2013-05-09 15:57:00,
2013-05-09 09:02:00,53.8,48.7,30.29,SW,215,5.0,11.0,83,0.00,,,0.00,65.0,meteohub,2013-05-09 16:02:00,
2013-05-09 09:07:00,54.0,48.9,30.29,WSW,246,3.0,11.0,83,0.00,,,0.00,79.0,meteohub,2013-05-09 16:07:00,
2013-05-09 09:12:00,54.1,48.7,30.29,WSW,244,4.0,11.0,82,0.00,,,0.00,121.0,meteohub,2013-05-09 16:12:00,
2013-05-09 09:17:00,54.3,48.9,30.29,West,281,4.0,9.0,82,0.00,,,0.00,65.0,meteohub,2013-05-09 16:17:00,
2013-05-09 09:22:00,54.7,48.9,30.29,West,269,4.0,9.0,81,0.00,,,0.00,74.0,meteohub,2013-05-09 16:22:00,
2013-05-09 09:27:00,54.7,48.9,30.30,NNW,328,4.0,10.0,81,0.00,,,0.00,62.0,meteohub,2013-05-09 16:27:00,
2013-05-09 09:32:00,54.7,48.9,30.30,WSW,254,4.0,10.0,81,0.00,,,0.00,49.0,meteohub,2013-05-09 16:32:00,
2013-05-09 09:37:00,54.9,48.7,30.30,SSW,193,6.0,10.0,80,0.00,,,0.00,49.0,meteohub,2013-05-09 16:37:00,
2013-05-09 09:42:00,55.0,49.3,30.29,SSW,193,5.0,9.0,81,0.00,,,0.00,49.0,meteohub,2013-05-09 16:42:00,
2013-05-09 09:47:00,55.2,49.1,30.29,SW,230,2.0,9.0,80,0.00,,,0.00,51.0,meteohub,2013-05-09 16:47:00,
2013-05-09 09:57:00,55.9,49.5,30.28,WSW,240,5.0,11.0,79,0.00,,,0.00,62.0,meteohub,2013-05-09 16:57:00,
2013-05-09 10:02:00,56.1,49.6,30.29,WSW,257,4.0,13.0,79,0.00,,,0.00,79.0,meteohub,2013-05-09 17:02:00,
2013-05-09 10:07:00,56.5,49.6,30.29,West,262,3.0,13.0,78,0.00,,,0.00,91.0,meteohub,2013-05-09 17:07:00,
2013-05-09 10:12:00,56.8,50.0,30.29,SSE,161,1.0,13.0,78,0.00,,,0.00,62.0,meteohub,2013-05-09 17:12:00,
2013-05-09 10:17:00,57.0,49.8,30.28,WNW,285,3.0,12.0,77,0.00,,,0.00,67.0,meteohub,2013-05-09 17:17:00,
2013-05-09 10:22:00,57.0,49.8,30.29,WSW,250,1.0,8.0,77,0.00,,,0.00,70.0,meteohub,2013-05-09 17:22:00,
2013-05-09 10:27:00,57.0,49.8,30.29,WNW,296,1.0,9.0,77,0.00,,,0.00,86.0,meteohub,2013-05-09 17:27:00,
2013-05-09 10:32:00,57.2,50.0,30.29,West,275,3.0,11.0,77,0.00,,,0.00,149.0,meteohub,2013-05-09 17:32:00,
2013-05-09 10:37:00,57.6,50.0,30.29,WNW,288,4.0,11.0,76,0.00,,,0.00,84.0,meteohub,2013-05-09 17:37:00,
2013-05-09 10:42:00,57.9,50.0,30.29,NW,311,6.0,10.0,75,0.00,,,0.00,701.0,meteohub,2013-05-09 17:42:00,
2013-05-09 10:47:00,58.6,50.4,30.29,SW,229,3.0,10.0,74,0.00,,,0.00,717.0,meteohub,2013-05-09 17:47:00,
2013-05-09 10:52:00,59.2,50.5,30.29,West,273,2.0,10.0,73,0.00,,,0.00,728.0,meteohub,2013-05-09 17:52:00,
2013-05-09 10:57:00,59.4,50.4,30.29,WSW,256,4.0,9.0,72,0.00,,,0.00,740.0,meteohub,2013-05-09 17:57:00,
2013-05-09 11:02:00,60.1,51.1,30.29,WSW,252,2.0,10.0,72,0.00,,,0.00,714.0,meteohub,2013-05-09 18:02:00,
2013-05-09 11:07:00,60.6,50.7,30.29,WNW,286,4.0,10.0,70,0.00,,,0.00,225.0,meteohub,2013-05-09 18:07:00,
2013-05-09 11:12:00,61.3,51.1,30.29,West,274,4.0,10.0,69,0.00,,,0.00,84.0,meteohub,2013-05-09 18:12:00,
2013-05-09 11:17:00,61.9,51.6,30.29,West,271,3.0,7.0,69,0.00,,,0.00,81.0,meteohub,2013-05-09 18:17:00,
2013-05-09 11:22:00,62.4,51.3,30.29,WSW,248,4.0,8.0,67,0.00,,,0.00,81.0,meteohub,2013-05-09 18:22:00,
2013-05-09 11:27:00,62.8,51.6,30.29,NW,306,3.0,8.0,67,0.00,,,0.00,81.0,meteohub,2013-05-09 18:27:00,
2013-05-09 11:32:00,63.1,51.6,30.28,SSW,199,5.0,9.0,66,0.00,,,0.00,83.0,meteohub,2013-05-09 18:32:00,
2013-05-09 11:37:00,63.7,51.6,30.28,SW,219,7.0,9.0,65,0.00,,,0.00,83.0,meteohub,2013-05-09 18:37:00,
2013-05-09 11:42:00,63.9,51.8,30.28,WSW,246,7.0,11.0,65,0.00,,,0.00,83.0,meteohub,2013-05-09 18:42:00,
2013-05-09 11:47:00,64.2,51.8,30.28,WSW,251,8.0,11.0,64,0.00,,,0.00,84.0,meteohub,2013-05-09 18:47:00,
2013-05-09 11:52:00,64.4,51.1,30.28,WSW,248,7.0,11.0,62,0.00,,,0.00,86.0,meteohub,2013-05-09 18:52:00,
2013-05-09 11:57:00,64.4,51.6,30.28,WSW,238,2.0,14.0,63,0.00,,,0.00,88.0,meteohub,2013-05-09 18:57:00,
2013-05-09 12:02:00,65.1,51.8,30.28,WSW,250,6.0,14.0,62,0.00,,,0.00,90.0,meteohub,2013-05-09 19:02:00,
2013-05-09 12:07:00,65.1,51.3,30.28,WSW,246,8.0,14.0,61,0.00,,,0.00,90.0,meteohub,2013-05-09 19:07:00,
2013-05-09 12:12:00,65.3,52.0,30.28,WNW,298,5.0,11.0,62,0.00,,,0.00,213.0,meteohub,2013-05-09 19:12:00,
2013-05-09 12:17:00,65.7,51.8,30.28,WSW,243,3.0,12.0,61,0.00,,,0.00,772.0,meteohub,2013-05-09 19:17:00,
2013-05-09 12:22:00,66.2,52.0,30.27,WSW,250,6.0,12.0,60,0.00,,,0.00,884.0,meteohub,2013-05-09 19:22:00,
2013-05-09 12:27:00,66.4,52.2,30.27,WSW,240,3.0,12.0,60,0.00,,,0.00,889.0,meteohub,2013-05-09 19:27:00,
2013-05-09 12:32:00,67.1,52.3,30.27,SSW,204,6.0,12.0,59,0.00,,,0.00,888.0,meteohub,2013-05-09 19:32:00,
2013-05-09 12:37:00,67.3,52.5,30.27,WSW,256,5.0,12.0,59,0.00,,,0.00,898.0,meteohub,2013-05-09 19:37:00,
2013-05-09 12:42:00,67.3,52.0,30.27,SW,236,4.0,12.0,58,0.00,,,0.00,902.0,meteohub,2013-05-09 19:42:00,
2013-05-09 12:47:00,67.3,52.5,30.27,SW,234,5.0,9.0,59,0.00,,,0.00,904.0,meteohub,2013-05-09 19:47:00,
2013-05-09 12:52:00,68.0,52.7,30.27,SW,236,7.0,9.0,58,0.00,,,0.00,905.0,meteohub,2013-05-09 19:52:00,
2013-05-09 12:57:00,68.4,52.5,30.27,SSW,210,4.0,9.0,57,0.00,,,0.00,912.0,meteohub,2013-05-09 19:57:00,
2013-05-09 13:02:00,68.4,52.0,30.27,SW,227,6.0,9.0,56,0.00,,,0.00,912.0,meteohub,2013-05-09 20:02:00,
2013-05-09 13:07:00,68.5,53.2,30.27,West,263,4.0,10.0,58,0.00,,,0.00,916.0,meteohub,2013-05-09 20:07:00,
2013-05-09 13:12:00,69.4,52.5,30.27,West,260,4.0,10.0,55,0.00,,,0.00,896.0,meteohub,2013-05-09 20:12:00,
2013-05-09 13:17:00,70.0,53.6,30.27,WSW,242,1.0,10.0,56,0.00,,,0.00,900.0,meteohub,2013-05-09 20:17:00,
2013-05-09 13:22:00,69.4,52.5,30.27,WSW,241,10.0,10.0,55,0.00,,,0.00,923.0,meteohub,2013-05-09 20:22:00,
2013-05-09 13:27:00,69.3,52.3,30.27,WSW,243,4.0,10.0,55,0.00,,,0.00,918.0,meteohub,2013-05-09 20:27:00,
2013-05-09 13:32:00,69.1,52.7,30.27,West,269,4.0,10.0,56,0.00,,,0.00,918.0,meteohub,2013-05-09 20:32:00,
2013-05-09 13:37:00,69.4,52.5,30.27,WNW,282,4.0,10.0,55,0.00,,,0.00,909.0,meteohub,2013-05-09 20:37:00,
2013-05-09 13:42:00,69.6,52.2,30.27,WSW,245,6.0,10.0,54,0.00,,,0.00,912.0,meteohub,2013-05-09 20:42:00,
2013-05-09 13:47:00,70.0,53.1,30.27,West,274,5.0,10.0,55,0.00,,,0.00,949.0,meteohub,2013-05-09 20:47:00,
2013-05-09 13:52:00,70.2,53.2,30.26,SSW,207,4.0,12.0,55,0.00,,,0.00,962.0,meteohub,2013-05-09 20:52:00,
2013-05-09 13:57:00,70.5,53.1,30.26,WSW,250,7.0,12.0,54,0.00,,,0.00,918.0,meteohub,2013-05-09 20:57:00,
2013-05-09 14:02:00,70.5,53.1,30.26,WSW,246,8.0,12.0,54,0.00,,,0.00,902.0,meteohub,2013-05-09 21:02:00,
2013-05-09 14:07:00,70.7,52.7,30.26,SSE,157,3.0,11.0,53,0.00,,,0.00,898.0,meteohub,2013-05-09 21:07:00,
2013-05-09 14:12:00,70.3,52.9,30.26,WSW,247,4.0,11.0,54,0.00,,,0.00,895.0,meteohub,2013-05-09 21:12:00,
2013-05-09 14:17:00,70.2,52.2,30.26,WSW,245,1.0,11.0,53,0.00,,,0.00,889.0,meteohub,2013-05-09 21:17:00,
2013-05-09 14:22:00,70.3,52.9,30.26,WSW,256,6.0,13.0,54,0.00,,,0.00,884.0,meteohub,2013-05-09 21:22:00,
2013-05-09 14:27:00,70.5,53.1,30.26,NNE,15,2.0,13.0,54,0.00,,,0.00,881.0,meteohub,2013-05-09 21:27:00,
2013-05-09 14:32:00,70.7,52.7,30.26,SSW,206,2.0,11.0,53,0.00,,,0.00,874.0,meteohub,2013-05-09 21:32:00,
2013-05-09 14:37:00,70.3,52.3,30.26,West,271,5.0,11.0,53,0.00,,,0.00,872.0,meteohub,2013-05-09 21:37:00,
2013-05-09 14:42:00,70.3,52.9,30.26,SW,233,6.0,15.0,54,0.00,,,0.00,863.0,meteohub,2013-05-09 21:42:00,
2013-05-09 14:47:00,69.8,52.3,30.26,WSW,247,6.0,15.0,54,0.00,,,0.00,858.0,meteohub,2013-05-09 21:47:00,
2013-05-09 14:52:00,69.3,52.3,30.26,WSW,242,5.0,15.0,55,0.00,,,0.00,849.0,meteohub,2013-05-09 21:52:00,
2013-05-09 14:57:00,69.3,53.4,30.26,South,182,5.0,12.0,57,0.00,,,0.00,844.0,meteohub,2013-05-09 21:57:00,
2013-05-09 15:02:00,69.6,53.2,30.25,West,263,2.0,12.0,56,0.00,,,0.00,837.0,meteohub,2013-05-09 22:02:00,
2013-05-09 15:07:00,69.4,52.5,30.25,WNW,286,6.0,12.0,55,0.00,,,0.00,830.0,meteohub,2013-05-09 22:07:00,
2013-05-09 15:12:00,69.1,52.2,30.25,WNW,283,4.0,12.0,55,0.00,,,0.00,823.0,meteohub,2013-05-09 22:12:00,
2013-05-09 15:17:00,68.4,52.0,30.25,WSW,241,9.0,14.0,56,0.00,,,0.00,814.0,meteohub,2013-05-09 22:17:00,
2013-05-09 15:22:00,68.5,52.7,30.25,WSW,248,6.0,14.0,57,0.00,,,0.00,803.0,meteohub,2013-05-09 22:22:00,
2013-05-09 15:27:00,68.5,52.2,30.25,WNW,301,2.0,14.0,56,0.00,,,0.00,795.0,meteohub,2013-05-09 22:27:00,
2013-05-09 15:32:00,68.2,52.3,30.24,WSW,258,7.0,13.0,57,0.00,,,0.00,786.0,meteohub,2013-05-09 22:32:00,
2013-05-09 15:37:00,68.0,52.7,30.24,WSW,252,7.0,15.0,58,0.00,,,0.00,777.0,meteohub,2013-05-09 22:37:00,
2013-05-09 15:42:00,68.2,52.3,30.24,West,271,9.0,15.0,57,0.00,,,0.00,766.0,meteohub,2013-05-09 22:42:00,
2013-05-09 15:47:00,68.4,52.5,30.24,WSW,253,6.0,14.0,57,0.00,,,0.00,756.0,meteohub,2013-05-09 22:47:00,
2013-05-09 15:52:00,68.2,52.3,30.23,WSW,240,3.0,15.0,57,0.00,,,0.00,747.0,meteohub,2013-05-09 22:52:00,
2013-05-09 15:57:00,68.5,52.2,30.23,WSW,255,4.0,15.0,56,0.00,,,0.00,735.0,meteohub,2013-05-09 22:57:00,
2013-05-09 16:02:00,68.9,52.5,30.23,WSW,254,4.0,15.0,56,0.00,,,0.00,722.0,meteohub,2013-05-09 23:02:00,
2013-05-09 16:07:00,69.6,52.7,30.23,WSW,238,12.0,12.0,55,0.00,,,0.00,710.0,meteohub,2013-05-09 23:07:00,
2013-05-09 16:12:00,69.6,52.7,30.23,West,261,7.0,12.0,55,0.00,,,0.00,698.0,meteohub,2013-05-09 23:12:00,
2013-05-09 16:17:00,69.6,52.7,30.23,SW,235,8.0,12.0,55,0.00,,,0.00,687.0,meteohub,2013-05-09 23:17:00,
2013-05-09 16:22:00,69.3,52.3,30.23,West,274,5.0,12.0,55,0.00,,,0.00,673.0,meteohub,2013-05-09 23:22:00,
2013-05-09 16:27:00,68.7,52.0,30.23,SW,217,5.0,13.0,55,0.00,,,0.00,661.0,meteohub,2013-05-09 23:27:00,
2013-05-09 16:32:00,68.7,52.9,30.23,WSW,242,8.0,13.0,57,0.00,,,0.00,649.0,meteohub,2013-05-09 23:32:00,
2013-05-09 16:37:00,68.7,52.3,30.22,West,277,4.0,13.0,56,0.00,,,0.00,636.0,meteohub,2013-05-09 23:37:00,
2013-05-09 16:42:00,69.1,52.2,30.22,WSW,248,4.0,12.0,55,0.00,,,0.00,629.0,meteohub,2013-05-09 23:42:00,
2013-05-09 16:47:00,69.3,52.3,30.22,West,273,4.0,12.0,55,0.00,,,0.00,619.0,meteohub,2013-05-09 23:47:00,
2013-05-09 16:52:00,69.4,52.2,30.22,West,271,5.0,11.0,54,0.00,,,0.00,605.0,meteohub,2013-05-09 23:52:00,
2013-05-09 16:57:00,69.4,52.2,30.22,WNW,292,4.0,10.0,54,0.00,,,0.00,589.0,meteohub,2013-05-09 23:57:00,
2013-05-09 17:02:00,69.4,52.2,30.22,WNW,287,8.0,10.0,54,0.00,,,0.00,573.0,meteohub,2013-05-10 00:02:00,
2013-05-09 17:07:00,68.4,51.6,30.22,SSW,192,4.0,14.0,55,0.00,,,0.00,555.0,meteohub,2013-05-10 00:07:00,
2013-05-09 17:12:00,67.5,51.6,30.22,SSW,209,4.0,14.0,57,0.00,,,0.00,538.0,meteohub,2013-05-10 00:12:00,
2013-05-09 17:17:00,67.6,52.3,30.22,SW,223,8.0,14.0,58,0.00,,,0.00,524.0,meteohub,2013-05-10 00:17:00,
2013-05-09 17:22:00,67.6,51.4,30.22,West,278,3.0,13.0,56,0.00,,,0.00,506.0,meteohub,2013-05-10 00:22:00,
2013-05-09 17:27:00,67.1,51.4,30.22,SW,217,6.0,14.0,57,0.00,,,0.00,490.0,meteohub,2013-05-10 00:27:00,
2013-05-09 17:32:00,66.7,51.4,30.22,WSW,248,7.0,15.0,58,0.00,,,0.00,473.0,meteohub,2013-05-10 00:32:00,
2013-05-09 17:37:00,66.6,51.3,30.22,West,279,6.0,15.0,58,0.00,,,0.00,461.0,meteohub,2013-05-10 00:37:00,
2013-05-09 17:42:00,66.6,51.3,30.22,SW,229,5.0,15.0,58,0.00,,,0.00,445.0,meteohub,2013-05-10 00:42:00,
2013-05-09 17:47:00,66.4,51.1,30.22,West,270,4.0,12.0,58,0.00,,,0.00,422.0,meteohub,2013-05-10 00:47:00,
2013-05-09 17:52:00,66.4,51.6,30.22,SW,225,7.0,14.0,59,0.00,,,0.00,411.0,meteohub,2013-05-10 00:52:00,
2013-05-09 17:57:00,65.8,51.1,30.22,West,265,5.0,14.0,59,0.00,,,0.00,392.0,meteohub,2013-05-10 00:57:00,
2013-05-09 18:02:00,65.7,50.9,30.22,SW,231,7.0,11.0,59,0.00,,,0.00,378.0,meteohub,2013-05-10 01:02:00,
2013-05-09 18:07:00,65.7,50.9,30.22,SW,225,5.0,12.0,59,0.00,,,0.00,360.0,meteohub,2013-05-10 01:07:00,
2013-05-09 18:12:00,65.7,51.4,30.22,SW,236,5.0,12.0,60,0.00,,,0.00,348.0,meteohub,2013-05-10 01:12:00,
2013-05-09 18:17:00,65.3,50.5,30.22,NW,317,7.0,11.0,59,0.00,,,0.00,323.0,meteohub,2013-05-10 01:17:00,
2013-05-09 18:22:00,64.6,50.9,30.22,SSW,211,6.0,13.0,61,0.00,,,0.00,306.0,meteohub,2013-05-10 01:22:00,
2013-05-09 18:27:00,64.2,50.5,30.22,WNW,285,5.0,13.0,61,0.00,,,0.00,292.0,meteohub,2013-05-10 01:27:00,
2013-05-09 18:32:00,64.0,50.7,30.22,West,271,2.0,13.0,62,0.00,,,0.00,272.0,meteohub,2013-05-10 01:32:00,
2013-05-09 18:37:00,64.0,50.7,30.22,SSW,206,6.0,12.0,62,0.00,,,0.00,255.0,meteohub,2013-05-10 01:37:00,
2013-05-09 18:42:00,63.3,49.6,30.22,West,259,6.0,12.0,61,0.00,,,0.00,236.0,meteohub,2013-05-10 01:42:00,
2013-05-09 18:47:00,62.2,49.5,30.22,SSW,199,8.0,17.0,63,0.00,,,0.00,216.0,meteohub,2013-05-10 01:47:00,
2013-05-09 18:52:00,62.1,49.8,30.22,SW,229,4.0,17.0,64,0.00,,,0.00,197.0,meteohub,2013-05-10 01:52:00,
2013-05-09 18:57:00,61.7,49.8,30.23,WSW,243,5.0,17.0,65,0.00,,,0.00,178.0,meteohub,2013-05-10 01:57:00,
2013-05-09 19:02:00,61.3,49.5,30.23,West,265,5.0,11.0,65,0.00,,,0.00,162.0,meteohub,2013-05-10 02:02:00,
2013-05-09 19:07:00,60.8,49.5,30.23,WSW,252,9.0,11.0,66,0.00,,,0.00,142.0,meteohub,2013-05-10 02:07:00,
2013-05-09 19:12:00,60.3,49.6,30.22,WSW,254,7.0,11.0,68,0.00,,,0.00,123.0,meteohub,2013-05-10 02:12:00,
2013-05-09 19:17:00,59.7,49.1,30.23,West,259,3.0,11.0,68,0.00,,,0.00,105.0,meteohub,2013-05-10 02:17:00,
2013-05-09 19:22:00,59.5,49.3,30.23,WSW,242,5.0,11.0,69,0.00,,,0.00,90.0,meteohub,2013-05-10 02:22:00,
2013-05-09 19:27:00,59.0,49.3,30.23,WNW,296,5.0,10.0,70,0.00,,,0.00,74.0,meteohub,2013-05-10 02:27:00,
2013-05-09 19:32:00,58.5,49.1,30.23,WNW,290,5.0,15.0,71,0.00,,,0.00,58.0,meteohub,2013-05-10 02:32:00,
2013-05-09 19:37:00,57.9,48.9,30.24,SW,222,11.0,15.0,72,0.00,,,0.00,46.0,meteohub,2013-05-10 02:37:00,
2013-05-09 19:42:00,57.4,48.7,30.24,SW,221,8.0,15.0,73,0.00,,,0.00,32.0,meteohub,2013-05-10 02:42:00,
2013-05-09 19:47:00,56.7,48.7,30.25,WSW,254,7.0,14.0,75,0.00,,,0.00,14.0,meteohub,2013-05-10 02:47:00,
2013-05-09 19:52:00,55.8,48.4,30.25,West,259,7.0,19.0,76,0.00,,,0.00,11.0,meteohub,2013-05-10 02:52:00,
2013-05-09 19:57:00,55.2,48.2,30.25,SW,221,11.0,19.0,77,0.00,,,0.00,7.0,meteohub,2013-05-10 02:57:00,
2013-05-09 20:02:00,54.9,48.2,30.25,West,260,6.0,19.0,78,0.00,,,0.00,5.0,meteohub,2013-05-10 03:02:00,
2013-05-09 20:07:00,54.3,48.0,30.25,WSW,248,8.0,17.0,79,0.00,,,0.00,0.0,meteohub,2013-05-10 03:07:00,
2013-05-09 20:12:00,54.0,48.0,30.25,WSW,245,2.0,13.0,80,0.00,,,0.00,0.0,meteohub,2013-05-10 03:12:00,
2013-05-09 20:17:00,53.8,47.8,30.26,West,263,4.0,13.0,80,0.00,,,0.00,0.0,meteohub,2013-05-10 03:17:00,
2013-05-09 20:22:00,53.4,47.5,30.26,WSW,245,9.0,12.0,80,0.00,,,0.00,0.0,meteohub,2013-05-10 03:22:00,
2013-05-09 20:32:00,53.1,47.7,30.26,West,281,4.0,13.0,82,0.00,,,0.00,0.0,meteohub,2013-05-10 03:32:00,
2013-05-09 20:37:00,52.9,47.5,30.26,WNW,303,5.0,13.0,82,0.00,,,0.00,0.0,meteohub,2013-05-10 03:37:00,
2013-05-09 20:47:00,52.5,47.5,30.27,NW,312,6.0,13.0,83,0.00,,,0.00,0.0,meteohub,2013-05-10 03:47:00,
2013-05-09 20:52:00,52.3,47.7,30.27,WSW,256,4.0,13.0,84,0.00,,,0.00,0.0,meteohub,2013-05-10 03:52:00,
2013-05-09 21:02:00,52.2,47.5,30.27,SW,234,5.0,14.0,84,0.00,,,0.00,0.0,meteohub,2013-05-10 04:02:00,
2013-05-09 21:07:00,52.2,47.8,30.27,South,180,5.0,12.0,85,0.00,,,0.00,0.0,meteohub,2013-05-10 04:07:00,
2013-05-09 21:12:00,52.0,47.7,30.27,West,267,4.0,13.0,85,0.00,,,0.00,0.0,meteohub,2013-05-10 04:12:00,
2013-05-09 21:17:00,52.0,47.7,30.27,WSW,244,7.0,13.0,85,0.00,,,0.00,0.0,meteohub,2013-05-10 04:17:00,
2013-05-09 21:22:00,52.0,47.7,30.27,WSW,255,5.0,13.0,85,0.00,,,0.00,0.0,meteohub,2013-05-10 04:22:00,
2013-05-09 21:27:00,51.8,47.5,30.27,SW,229,6.0,13.0,85,0.00,,,0.00,0.0,meteohub,2013-05-10 04:27:00,
2013-05-09 21:32:00,51.6,47.5,30.27,SW,217,3.0,13.0,86,0.00,,,0.00,0.0,meteohub,2013-05-10 04:32:00,
2013-05-09 21:37:00,51.6,47.5,30.27,SW,234,2.0,15.0,86,0.00,,,0.00,0.0,meteohub,2013-05-10 04:37:00,
2013-05-09 21:42:00,51.6,47.5,30.28,WNW,282,0.0,15.0,86,0.00,,,0.00,0.0,meteohub,2013-05-10 04:42:00,
2013-05-09 21:47:00,51.6,47.5,30.28,SSW,212,0.0,15.0,86,0.00,,,0.00,0.0,meteohub,2013-05-10 04:47:00,
2013-05-09 21:52:00,51.6,47.5,30.29,SW,229,2.0,8.0,86,0.00,,,0.00,0.0,meteohub,2013-05-10 04:52:00,
2013-05-09 21:57:00,51.4,47.5,30.29,SW,227,3.0,8.0,86,0.00,,,0.00,0.0,meteohub,2013-05-10 04:57:00,
2013-05-09 22:02:00,51.4,47.5,30.29,SSW,200,1.0,7.0,86,0.00,,,0.00,0.0,meteohub,2013-05-10 05:02:00,
2013-05-09 22:07:00,51.4,47.5,30.29,West,269,4.0,8.0,86,0.00,,,0.00,0.0,meteohub,2013-05-10 05:07:00,
2013-05-09 22:12:00,51.3,47.5,30.29,WNW,296,4.0,9.0,87,0.00,,,0.00,0.0,meteohub,2013-05-10 05:12:00,
2013-05-09 22:17:00,51.3,47.5,30.29,South,184,4.0,9.0,87,0.00,,,0.00,0.0,meteohub,2013-05-10 05:17:00,
2013-05-09 22:22:00,51.4,47.7,30.30,West,266,2.0,11.0,87,0.00,,,0.00,0.0,meteohub,2013-05-10 05:22:00,
2013-05-09 22:27:00,51.4,47.7,30.30,West,277,3.0,12.0,87,0.00,,,0.00,0.0,meteohub,2013-05-10 05:27:00,
2013-05-09 22:32:00,51.4,47.7,30.30,WSW,257,3.0,12.0,87,0.00,,,0.00,0.0,meteohub,2013-05-10 05:32:00,
2013-05-09 22:37:00,51.4,47.7,30.30,WSW,253,3.0,12.0,87,0.00,,,0.00,0.0,meteohub,2013-05-10 05:37:00,
2013-05-09 22:42:00,51.3,47.5,30.30,WSW,238,6.0,12.0,87,0.00,,,0.00,0.0,meteohub,2013-05-10 05:42:00,
2013-05-09 22:47:00,51.3,47.5,30.30,West,278,3.0,12.0,87,0.00,,,0.00,0.0,meteohub,2013-05-10 05:47:00,
2013-05-09 22:52:00,51.3,47.5,30.30,WSW,242,14.0,14.0,87,0.00,,,0.00,0.0,meteohub,2013-05-10 05:52:00,
2013-05-09 22:57:00,51.3,47.5,30.30,SW,230,4.0,14.0,87,0.00,,,0.00,0.0,meteohub,2013-05-10 05:57:00,
2013-05-09 23:02:00,51.3,47.5,30.30,West,270,5.0,14.0,87,0.00,,,0.00,0.0,meteohub,2013-05-10 06:02:00,
2013-05-09 23:07:00,51.3,47.5,30.30,WSW,242,7.0,14.0,87,0.00,,,0.00,0.0,meteohub,2013-05-10 06:07:00,
2013-05-09 23:12:00,51.3,47.5,30.30,WSW,255,3.0,12.0,87,0.00,,,0.00,0.0,meteohub,2013-05-10 06:12:00,
2013-05-09 23:17:00,51.3,47.5,30.30,West,263,5.0,10.0,87,0.00,,,0.00,0.0,meteohub,2013-05-10 06:17:00,
2013-05-09 23:22:00,51.3,47.5,30.30,West,261,4.0,10.0,87,0.00,,,0.00,0.0,meteohub,2013-05-10 06:22:00,
2013-05-09 23:27:00,51.3,47.5,30.30,WSW,246,8.0,8.0,87,0.00,,,0.00,0.0,meteohub,2013-05-10 06:27:00,
2013-05-09 23:32:00,51.3,47.5,30.30,SSW,206,1.0,9.0,87,0.00,,,0.00,0.0,meteohub,2013-05-10 06:32:00,
2013-05-09 23:37:00,51.3,47.5,30.30,NW,313,3.0,14.0,87,0.00,,,0.00,0.0,meteohub,2013-05-10 06:37:00,
2013-05-09 23:42:00,51.1,47.3,30.30,WSW,246,8.0,14.0,87,0.00,,,0.00,0.0,meteohub,2013-05-10 06:42:00,
2013-05-09 23:47:00,51.1,47.3,30.30,SSW,209,5.0,14.0,87,0.00,,,0.00,0.0,meteohub,2013-05-10 06:47:00,
2013-05-09 23:52:00,51.1,47.3,30.31,SW,236,6.0,14.0,87,0.00,,,0.00,0.0,meteohub,2013-05-10 06:52:00,
2013-05-09 23:57:00,51.1,47.3,30.30,West,277,4.0,10.0,87,0.00,,,0.00,0.0,meteohub,2013-05-10 06:57:00,